Location: Newark
(13.2833°S, 176.1833°W)
Time: 12:40:54
(UTC+00:00)

Hubble Space Telescope - Pass Details

Date: 26 November 2019
Orbit: 536 x 540 km, 28.5° (Epoch: 10 December)

Event Time Altitude Azimuth Distance (km) Brightness Sun altitude
Exits shadow 14:22:55 11° 154° (SSE) 1,738 4.0 -35.8°
Drops below altitude 10° 14:23:03 10° 153° (SSE) 1,773 4.0 -35.8°
Sets 14:25:58 0° 133° (SE) 2,688 5.4 -35.3°
